Wind_Speed
30 27 26 26 21 20 20 20 21 20 22 23 20 17 16 16 17 17 16 14 14 14 14 14 14 13 14 14 14 15 16 16 17 18 19 20 21 22 23 23 24 25 26 26
31 27 25 25 20 20 20 20 21 21 24 25 23 19 19 19 18 18 17 16 16 16 16 16 16 16 17 17 17 18 18 18 20 21 22 23 24 25 25 26 26 27 27 28
30 27 27 25 22 20 21 21 22 23 24 25 24 24 21 19 19 19 18 18 18 17 17 17 18 19 20 20 20 20 20 21 22 23 25 26 27 28 28 29 29 29 30 31
31 30 30 24 23 22 22 22 25 26 25 25 24 22 22 22 21 20 20 20 20 21 21 20 21 21 23 22 23 23 23 24 25 26 28 29 30 30 30 30 30 31 32 33
29 29 29 26 24 24 24 24 26 26 26 25 23 24 24 22 22 21 21 21 22 22 23 23 23 23 24 24 25 26 26 27 27 29 29 30 31 31 32 32 33 33 34 35
26 25 26 24 24 24 25 24 25 26 25 25 24 25 23 21 22 22 23 22 23 25 25 26 26 26 26 27 28 28 28 30 31 31 31 32 33 34 35 36 37 38 38 39
24 25 24 24 22 22 25 24 23 23 25 25 24 25 24 24 24 24 23 24 24 25 26 27 28 29 29 29 30 31 32 33 34 34 34 35 36 37 37 38 40 41 41 41
23 24 26 26 23 23 23 21 22 24 26 25 24 25 25 25 25 25 25 25 26 26 27 28 29 30 32 32 32 34 35 35 36 37 38 39 40 40 40 42 43 42 41 40
24 25 26 24 24 22 21 20 21 22 24 24 24 25 25 25 26 26 26 26 26 27 28 29 29 31 32 33 34 35 37 37 37 38 38 39 41 41 40 41 41 41 42 42
20 22 23 23 23 21 21 21 20 21 23 24 24 24 25 26 26 26 26 26 27 28 28 29 31 32 33 34 35 35 36 37 37 37 38 40 40 40 40 42 42 42 41 43
21 22 22 22 23 23 23 22 21 22 23 24 25 25 25 26 27 28 27 28 28 28 29 30 31 32 34 35 35 36 36 37 37 37 38 39 39 40 40 40 41 42 42 44
19 20 21 21 22 21 21 20 20 22 23 25 26 26 26 27 28 28 28 28 29 29 30 31 31 32 33 34 34 35 36 37 37 38 38 38 39 40 41 42 42 43 45 46
19 19 20 20 21 21 22 22 22 23 24 24 25 26 26 26 27 28 28 29 30 31 32 32 32 32 33 34 35 35 35 35 36 37 38 39 40 41 42 43 44 46 47 48
19 19 20 21 21 22 22 22 22 23 24 25 25 26 27 27 27 28 28 29 30 30 31 31 32 32 33 33 34 35 36 36 37 38 39 40 41 42 44 45 47 48 49 50
18 19 19 19 19 20 20 21 22 23 24 24 25 25 26 27 27 28 28 28 29 30 30 31 32 33 33 33 35 37 38 39 40 41 42 43 44 46 47 48 49 50 51 51
17 17 18 19 19 20 21 22 22 23 23 24 25 25 26 28 29 29 29 29 30 31 31 32 33 34 35 36 36 38 40 41 42 43 45 45 46 47 48 49 50 50 51 51
17 17 18 19 19 19 20 22 22 23 24 24 25 26 27 28 29 29 30 31 32 33 34 34 34 35 36 36 38 39 41 42 44 45 46 47 48 49 49 50 50 50 51 52
18 18 18 19 19 20 21 22 23 24 25 26 26 27 27 29 31 32 32 33 34 35 37 37 38 39 40 40 41 42 43 44 45 46 47 48 49 49 49 50 50 51 52 52
19 19 20 20 21 22 23 23 24 26 27 28 29 30 31 32 33 34 35 36 37 38 38 39 39 40 42 43 44 44 45 45 46 47 47 48 49 50 50 50 51 51 51 51
21 21 22 22 23 24 24 25 26 27 29 30 31 33 34 35 36 37 38 38 38 38 39 40 41 42 43 43 44 45 45 46 47 47 48 48 48 49 49 49 49 48 47 47
22 23 24 24 25 26 26 27 28 30 32 33 34 35 36 37 37 38 38 38 39 40 41 41 42 43 43 44 44 45 45 46 46 46 46 46 46 46 46 46 45 44 43 43
23 24 26 27 27 28 28 29 31 33 34 35 36 37 38 38 39 39 39 40 41 41 42 43 43 43 43 43 43 43 43 44 44 43 43 43 43 43 42 41 41 40 39 39
26 27 28 29 30 30 31 32 33 34 35 36 37 37 38 38 39 39 40 41 42 42 42 42 42 42 42 42 42 42 42 41 41 41 41 41 41 40 39 38 37 37 37 36
27 28 30 30 31 32 33 35 35 36 37 38 38 39 39 39 40 40 41 41 41 40 40 40 40 40 40 40 40 40 40 39 38 38 38 37 37 36 36 35 34 33 31 30
28 29 30 32 33 34 36 37 37 38 38 39 39 39 39 39 39 39 39 39 39 39 39 39 38 38 38 38 38 37 36 36 35 34 33 33 33 32 32 31 29 28 27 26
29 31 32 34 34 35 36 37 37 38 38 38 38 39 38 38 38 38 37 37 37 37 37 37 37 37 36 35 35 33 32 32 32 31 30 29 28 28 27 26 24 24 23 22
31 32 33 34 35 36 36 36 37 37 37 36 36 36 36 36 36 36 35 35 35 35 35 34 34 34 33 32 31 31 30 29 28 27 26 25 24 23 23 22 21 20 19 18
Wind_Direction
234 237 245 252 247 238 243 243 247 252 258 263 267 266 267 276 281 283 278 271 271 270 269 270 269 267 266 265 265 263 262 260 260 261 263 264 265 266 268 270 272 275 277 278
234 238 246 247 247 245 246 245 249 250 255 263 269 271 269 274 275 278 275 273 271 269 268 268 269 268 268 267 267 264 265 266 265 265 266 267 268 269 270 271 274 276 278 279
232 234 242 247 252 253 249 250 250 252 254 261 268 271 274 276 276 277 276 275 272 271 272 270 269 269 269 269 269 269 270 271 271 270 271 272 271 271 271 272 274 276 278 279
232 235 237 241 245 247 245 250 249 253 256 261 264 266 272 275 275 274 276 275 273 273 273 274 273 272 270 270 272 273 272 272 272 272 274 274 273 274 273 275 277 278 278 279
234 235 240 237 236 236 239 244 247 252 255 258 260 265 267 270 273 273 271 271 272 272 274 275 274 274 274 271 273 273 273 274 276 276 277 276 275 274 275 276 277 278 279 280
234 238 240 240 241 240 240 242 245 250 253 254 258 264 268 272 273 271 269 269 272 271 273 275 275 275 275 275 275 275 275 276 277 277 278 279 280 279 279 277 277 278 279 280
235 238 244 244 242 239 239 241 245 251 256 258 259 262 266 270 273 273 274 274 273 273 273 274 275 275 276 276 275 276 278 278 280 280 280 280 281 281 280 280 279 279 280 281
232 239 245 246 245 241 240 244 247 252 257 261 263 266 269 271 272 273 275 276 275 275 275 275 275 275 276 278 278 279 279 280 282 282 282 281 281 280 279 280 280 280 281 283
235 240 244 249 249 249 246 251 252 252 255 261 266 269 270 271 272 274 275 277 277 277 276 277 277 277 276 278 279 281 281 281 283 284 284 282 282 281 281 283 282 281 282 283
243 244 248 252 253 255 256 258 256 256 260 266 270 271 272 272 274 275 275 276 276 277 278 278 277 277 278 279 280 281 281 282 283 284 284 284 283 284 283 285 284 284 285 286
256 254 255 257 257 260 260 258 258 261 264 268 272 274 276 277 277 275 276 277 277 278 278 277 278 278 278 278 279 280 280 281 282 283 283 284 284 283 284 285 286 288 288 289
255 256 258 258 259 263 268 268 269 271 272 272 274 275 277 278 277 276 277 278 279 280 280 279 280 281 281 281 280 281 280 282 283 283 284 285 286 285 286 288 288 289 291 291
261 260 262 264 265 267 269 269 270 272 273 274 274 275 277 278 278 278 279 280 281 281 281 282 282 283 282 283 282 282 282 283 285 286 288 289 289 289 289 289 289 290 290 290
265 267 268 267 268 269 270 271 273 273 275 277 277 278 278 279 280 279 280 281 281 282 283 283 284 285 285 285 285 284 285 286 288 289 290 290 290 290 290 290 291 291 290 291
266 267 268 269 270 272 272 273 274 273 274 277 278 279 279 279 280 281 282 283 283 284 284 285 285 285 285 286 287 288 287 287 287 289 290 290 291 291 291 291 292 293 293 293
268 269 270 272 275 276 276 276 276 275 276 278 280 281 281 282 283 283 282 282 283 284 285 286 287 288 287 287 289 289 289 289 289 289 290 291 292 294 294 294 294 294 294 294
270 272 274 272 274 276 277 276 278 281 283 283 283 284 285 285 285 285 286 286 286 287 289 289 289 291 292 292 292 292 292 292 292 292 293 293 294 295 295 295 295 295 295 296
273 275 275 275 277 279 280 281 282 284 285 287 287 287 288 288 289 290 290 291 291 291 292 292 293 294 295 295 295 296 296 295 295 295 295 295 295 295 295 295 295 295 295 295
274 277 278 279 279 279 281 282 284 285 286 289 289 289 291 291 291 290 291 292 293 294 294 294 294 294 294 295 296 296 296 296 295 295 295 295 295 295 295 295 295 295 295 295
275 278 280 281 282 282 283 283 284 285 287 290 292 292 292 292 292 292 292 292 293 294 295 296 296 296 297 297 297 298 297 296 296 296 296 296 296 296 296 296 296 296 295 295
276 278 280 281 282 282 284 285 287 288 289 290 291 292 292 292 293 294 294 294 295 296 297 297 297 298 299 299 299 299 299 297 297 296 297 297 297 297 297 297 297 296 296 296
275 278 281 283 284 285 286 287 288 289 289 290 292 292 293 294 294 295 295 295 296 297 297 298 298 299 299 299 300 300 300 299 299 298 298 299 299 299 299 299 298 297 296 295
276 279 282 284 286 286 287 289 290 290 291 293 294 295 295 296 296 297 297 297 298 298 298 298 298 298 298 299 299 300 301 301 301 301 300 300 300 300 300 300 300 299 298 297
279 281 283 286 288 288 290 291 292 292 293 295 296 296 296 297 297 297 297 298 298 298 298 298 299 299 299 300 300 300 300 301 301 301 301 301 301 301 301 301 301 300 300 300
282 283 285 285 287 289 290 292 292 292 293 295 296 297 297 298 298 298 298 298 298 299 299 299 299 300 300 300 300 300 300 301 302 302 302 303 303 303 303 303 302 302 303 303
281 283 285 286 287 289 290 291 291 292 294 295 296 297 298 298 298 299 299 298 298 298 299 299 300 300 301 301 300 300 300 300 301 301 302 303 304 305 304 304 304 305 306 307
283 284 285 286 288 290 291 292 292 293 294 295 296 297 298 299 299 299 299 299 299 300 300 301 301 302 302 302 302 302 303 303 302 303 303 304 306 308 308 308 308 310 311 311
Height
5812 5814 5816 5817 5819 5822 5824 5825 5827 5828 5826 5825 5823 5825 5826 5828 5829 5830 5829 5829 5830 5831 5832 5832 5833 5834 5835 5835 5836 5837 5838 5839 5840 5841 5842 5843 5843 5844 5844 5845 5845 5845 5845 5845
5806 5809 5810 5812 5815 5816 5818 5820 5822 5822 5822 5820 5818 5821 5822 5823 5824 5825 5825 5825 5827 5828 5829 5829 5830 5830 5831 5832 5832 5833 5834 5835 5835 5836 5836 5837 5837 5838 5838 5838 5838 5838 5838 5837
5801 5804 5805 5807 5810 5811 5814 5815 5816 5816 5817 5816 5816 5817 5818 5820 5820 5821 5821 5822 5822 5824 5824 5825 5826 5826 5827 5827 5828 5828 5829 5830 5830 5830 5831 5831 5831 5831 5831 5830 5830 5830 5830 5829
5795 5798 5800 5805 5806 5806 5808 5809 5810 5810 5811 5811 5812 5811 5813 5815 5816 5817 5818 5818 5818 5819 5820 5820 5821 5821 5821 5822 5822 5823 5823 5823 5823 5823 5824 5824 5823 5823 5822 5822 5822 5821 5821 5820
5788 5790 5793 5797 5797 5799 5800 5802 5803 5804 5805 5806 5806 5806 5808 5810 5811 5812 5812 5813 5813 5813 5814 5815 5815 5815 5814 5814 5815 5816 5815 5815 5816 5816 5816 5815 5814 5813 5813 5813 5813 5812 5811 5810
5782 5784 5786 5789 5790 5792 5794 5794 5796 5798 5799 5800 5801 5802 5803 5804 5805 5806 5806 5807 5808 5808 5809 5809 5809 5809 5809 5809 5809 5808 5808 5809 5808 5808 5807 5807 5806 5805 5804 5804 5803 5802 5801 5800
5777 5778 5780 5782 5783 5786 5789 5790 5790 5792 5793 5793 5794 5796 5798 5799 5800 5800 5800 5800 5802 5802 5802 5802 5802 5802 5802 5802 5802 5801 5801 5801 5800 5799 5798 5797 5797 5796 5794 5793 5792 5791 5790 5789
5771 5773 5776 5776 5778 5779 5780 5781 5783 5785 5787 5788 5788 5790 5792 5793 5793 5794 5794 5795 5795 5795 5795 5795 5795 5795 5794 5793 5793 5792 5792 5792 5791 5789 5788 5787 5786 5785 5784 5782 5781 5780 5778 5777
5767 5770 5770 5770 5772 5773 5774 5775 5776 5778 5780 5782 5783 5784 5785 5786 5787 5787 5788 5788 5788 5788 5788 5788 5788 5787 5787 5786 5785 5784 5783 5782 5781 5780 5778 5777 5776 5774 5773 5771 5769 5768 5767 5765
5761 5762 5763 5765 5767 5768 5769 5770 5771 5772 5774 5776 5778 5778 5779 5779 5780 5780 5781 5781 5781 5781 5780 5780 5780 5779 5778 5777 5776 5775 5773 5772 5771 5770 5768 5767 5765 5764 5762 5760 5758 5756 5754 5752
5757 5757 5759 5761 5762 5763 5764 5765 5766 5768 5769 5770 5771 5772 5772 5773 5773 5773 5773 5773 5773 5772 5772 5772 5771 5770 5769 5768 5767 5766 5764 5763 5761 5760 5759 5757 5755 5754 5751 5749 5747 5745 5742 5740
5752 5753 5755 5756 5757 5757 5758 5759 5761 5762 5763 5764 5765 5765 5765 5765 5765 5765 5765 5765 5764 5764 5763 5762 5761 5761 5760 5759 5757 5756 5754 5753 5751 5749 5748 5746 5744 5743 5740 5737 5734 5732 5730 5727
5747 5748 5750 5751 5752 5753 5754 5755 5756 5756 5757 5757 5758 5758 5758 5758 5758 5757 5757 5757 5756 5755 5754 5753 5752 5751 5750 5749 5747 5746 5744 5742 5741 5739 5736 5734 5732 5730 5728 5725 5722 5720 5716 5713
5743 5745 5746 5746 5747 5748 5749 5749 5750 5750 5750 5751 5751 5751 5751 5750 5750 5750 5749 5748 5747 5746 5745 5744 5743 5741 5740 5739 5737 5735 5733 5732 5730 5728 5725 5722 5720 5717 5714 5712 5709 5706 5703 5699
5739 5740 5741 5741 5742 5742 5743 5743 5744 5744 5745 5745 5744 5744 5743 5743 5742 5742 5741 5740 5739 5738 5736 5735 5734 5732 5730 5728 5727 5725 5723 5721 5718 5716 5713 5710 5707 5704 5701 5698 5694 5691 5687 5683
5735 5735 5736 5737 5737 5737 5737 5738 5738 5738 5738 5738 5737 5737 5736 5736 5735 5733 5733 5732 5730 5729 5727 5725 5724 5722 5720 5718 5715 5713 5711 5709 5706 5703 5701 5697 5694 5690 5687 5683 5679 5675 5671 5667
5731 5731 5732 5732 5732 5732 5732 5732 5732 5732 5731 5731 5730 5730 5729 5728 5726 5725 5724 5723 5721 5719 5717 5715 5713 5711 5709 5707 5704 5702 5699 5696 5693 5690 5687 5683 5680 5676 5672 5668 5664 5660 5656 5651
5726 5727 5727 5727 5727 5727 5727 5726 5726 5725 5724 5724 5723 5722 5721 5719 5718 5716 5715 5713 5711 5709 5707 5705 5703 5700 5698 5695 5692 5689 5686 5683 5679 5676 5672 5668 5665 5661 5657 5653 5649 5644 5640 5636
5721 5722 5722 5722 5721 5721 5720 5720 5719 5718 5717 5716 5715 5714 5712 5710 5709 5707 5705 5703 5701 5699 5696 5694 5691 5688 5686 5683 5679 5676 5672 5669 5665 5662 5658 5654 5650 5646 5642 5637 5633 5629 5625 5620
5716 5716 5716 5715 5715 5714 5713 5713 5712 5711 5709 5708 5706 5705 5703 5701 5699 5697 5695 5692 5690 5687 5685 5682 5679 5676 5673 5670 5666 5662 5658 5655 5651 5647 5643 5639 5635 5631 5626 5622 5618 5614 5609 5605
5709 5709 5709 5708 5708 5707 5706 5705 5704 5702 5701 5699 5697 5695 5693 5691 5688 5686 5683 5681 5679 5676 5673 5670 5667 5663 5660 5656 5652 5648 5645 5641 5637 5633 5628 5624 5620 5616 5612 5608 5603 5599 5595 5592
5702 5702 5701 5701 5700 5699 5698 5696 5695 5693 5692 5689 5687 5685 5682 5680 5677 5674 5672 5670 5667 5664 5660 5657 5654 5650 5647 5643 5639 5635 5631 5627 5623 5619 5615 5611 5607 5602 5598 5594 5590 5586 5583 5579
5695 5694 5693 5692 5691 5690 5688 5687 5685 5683 5681 5679 5677 5674 5672 5669 5666 5663 5660 5657 5654 5651 5648 5644 5641 5638 5634 5630 5627 5623 5619 5615 5610 5606 5602 5598 5594 5590 5587 5583 5579 5575 5571 5568
5687 5686 5685 5684 5682 5681 5679 5677 5675 5673 5671 5669 5666 5663 5661 5658 5655 5651 5648 5645 5642 5639 5636 5632 5629 5625 5622 5618 5615 5611 5607 5603 5599 5595 5591 5587 5583 5579 5576 5572 5568 5565 5561 5558
5679 5677 5676 5675 5673 5672 5670 5667 5665 5663 5660 5658 5655 5652 5649 5646 5643 5640 5637 5633 5630 5627 5624 5621 5617 5614 5610 5607 5603 5599 5595 5592 5588 5585 5581 5577 5573 5570 5566 5563 5559 5556 5553 5550
5670 5669 5667 5666 5664 5662 5660 5657 5655 5652 5650 5647 5644 5641 5638 5635 5632 5629 5626 5622 5619 5616 5613 5609 5606 5603 5599 5596 5592 5589 5586 5582 5579 5576 5572 5569 5565 5562 5558 5555 5552 5549 5547 5544
5661 5660 5658 5656 5654 5652 5650 5647 5645 5642 5639 5636 5634 5631 5627 5624 5621 5618 5615 5612 5609 5605 5602 5599 5596 5592 5589 5586 5583 5580 5577 5573 5570 5567 5564 5561 5558 5555 5552 5549 5547 5544 5541 5539